TimeEDT,TemperatureF,Dew PointF,Humidity,Sea Level PressureIn,VisibilityMPH,Wind Direction,Wind SpeedMPH,Gust SpeedMPH,PrecipitationIn,Events,Conditions,WindDirDegrees,DateUTC
12:35 AM,44.6,39.9,84,30.34,10.0,Calm,Calm,-,N/A,,Clear,0,2012-10-14 04:35:00
1:15 AM,47.3,42.8,84,30.33,10.0,South,3.5,-,N/A,,Clear,180,2012-10-14 05:15:00
1:35 AM,47.3,43.2,86,30.32,10.0,South,5.8,-,N/A,,Clear,170,2012-10-14 05:35:00
1:55 AM,47.3,43.7,87,30.31,10.0,South,5.8,-,N/A,,Clear,170,2012-10-14 05:55:00
2:15 AM,47.3,43.7,87,30.31,10.0,Calm,Calm,-,N/A,,Clear,0,2012-10-14 06:15:00
2:35 AM,46.6,45.0,94,30.31,10.0,South,3.5,-,N/A,,Clear,180,2012-10-14 06:35:00
2:55 AM,46.4,-9999,N/A,30.30,10.0,South,3.5,-,N/A,,Clear,170,2012-10-14 06:55:00
3:35 AM,45.5,-9999,N/A,30.29,10.0,Calm,Calm,-,N/A,,Clear,0,2012-10-14 07:35:00
3:55 AM,44.8,-9999,N/A,30.28,10.0,Calm,Calm,-,N/A,,Clear,0,2012-10-14 07:55:00
4:15 AM,42.6,-9999,N/A,30.28,10.0,Calm,Calm,-,N/A,,Clear,0,2012-10-14 08:15:00
4:35 AM,42.1,-9999,N/A,30.29,10.0,Calm,Calm,-,N/A,,Clear,0,2012-10-14 08:35:00
4:55 AM,45.1,-9999,N/A,30.28,10.0,Calm,Calm,-,N/A,,Clear,0,2012-10-14 08:55:00
5:15 AM,43.7,-9999,N/A,30.28,10.0,Calm,Calm,-,N/A,,Clear,0,2012-10-14 09:15:00
5:35 AM,42.3,-9999,N/A,30.28,10.0,Calm,Calm,-,N/A,,Clear,0,2012-10-14 09:35:00
5:55 AM,44.8,-9999,N/A,30.28,10.0,Calm,Calm,-,N/A,,Clear,0,2012-10-14 09:55:00
6:15 AM,45.3,-9999,N/A,30.28,10.0,Calm,Calm,-,N/A,,Clear,0,2012-10-14 10:15:00
6:35 AM,44.2,-9999,N/A,30.28,10.0,Calm,Calm,-,N/A,,Clear,0,2012-10-14 10:35:00
6:55 AM,45.1,-9999,N/A,30.28,10.0,Calm,Calm,-,N/A,,Clear,0,2012-10-14 10:55:00
7:15 AM,45.5,-9999,N/A,30.27,10.0,Calm,Calm,-,N/A,,Clear,0,2012-10-14 11:15:00
7:35 AM,45.7,-9999,N/A,30.27,10.0,SSE,3.5,-,N/A,,Clear,160,2012-10-14 11:35:00
7:55 AM,46.4,-9999,N/A,30.27,10.0,Calm,Calm,-,N/A,,Clear,0,2012-10-14 11:55:00
8:15 AM,48.0,-9999,N/A,30.28,10.0,SSE,3.5,-,N/A,,Clear,160,2012-10-14 12:15:00
8:35 AM,49.6,-9999,N/A,30.28,10.0,Calm,Calm,-,N/A,,Clear,0,2012-10-14 12:35:00
8:55 AM,51.3,51.3,100,30.28,10.0,SSE,3.5,-,N/A,,Clear,160,2012-10-14 12:55:00
9:15 AM,53.8,52.5,95,30.28,10.0,South,3.5,-,N/A,,Clear,170,2012-10-14 13:15:00
9:35 AM,57.4,48.2,71,30.28,10.0,SSW,10.4,16.1,N/A,,Clear,210,2012-10-14 13:35:00
9:55 AM,59.7,47.8,65,30.28,10.0,SW,5.8,-,N/A,,Clear,220,2012-10-14 13:55:00
10:15 AM,61.5,48.0,61,30.27,10.0,SSW,9.2,16.1,N/A,,Clear,200,2012-10-14 14:15:00
10:35 AM,63.1,48.2,58,30.26,10.0,SSW,12.7,16.1,N/A,,Clear,200,2012-10-14 14:35:00
10:55 AM,64.9,48.2,55,30.26,10.0,SSW,10.4,-,N/A,,Clear,200,2012-10-14 14:55:00
11:15 AM,66.6,49.1,53,30.25,10.0,SSW,13.8,18.4,N/A,,Clear,210,2012-10-14 15:15:00
11:35 AM,68.0,48.2,49,30.24,10.0,South,9.2,16.1,N/A,,Clear,190,2012-10-14 15:35:00
11:55 AM,69.1,48.2,47,30.23,10.0,South,11.5,16.1,N/A,,Clear,190,2012-10-14 15:55:00
12:15 PM,70.2,48.2,46,30.23,10.0,SSW,12.7,17.3,N/A,,Clear,200,2012-10-14 16:15:00
12:35 PM,71.1,48.4,44,30.21,10.0,SSW,9.2,-,N/A,,Clear,200,2012-10-14 16:35:00
12:55 PM,71.1,47.5,43,30.20,10.0,SSW,16.1,23.0,N/A,,Clear,210,2012-10-14 16:55:00
1:15 PM,72.3,48.7,43,30.19,10.0,SSW,8.1,19.6,N/A,,Clear,210,2012-10-14 17:15:00
1:35 PM,72.5,47.7,41,30.17,10.0,SSW,15.0,23.0,N/A,,Clear,200,2012-10-14 17:35:00
1:55 PM,73.9,48.4,40,30.16,10.0,SSW,11.5,20.7,N/A,,Clear,210,2012-10-14 17:55:00
2:35 PM,74.7,48.2,39,30.14,10.0,South,11.5,20.7,N/A,,Clear,190,2012-10-14 18:35:00
2:55 PM,74.3,48.2,40,30.13,10.0,SW,17.3,27.6,N/A,,Clear,220,2012-10-14 18:55:00
3:15 PM,74.8,48.4,39,30.12,10.0,SSW,12.7,23.0,N/A,,Clear,210,2012-10-14 19:15:00
3:35 PM,75.4,49.1,39,30.11,10.0,SW,10.4,17.3,N/A,,Clear,220,2012-10-14 19:35:00
3:55 PM,75.2,49.6,41,30.10,10.0,SSW,10.4,17.3,N/A,,Clear,200,2012-10-14 19:55:00
4:15 PM,75.2,49.1,40,30.09,10.0,South,13.8,19.6,N/A,,Scattered Clouds,180,2012-10-14 20:15:00
4:35 PM,74.7,49.3,41,30.08,10.0,SSW,11.5,19.6,N/A,,Clear,200,2012-10-14 20:35:00
4:55 PM,73.9,50.0,43,30.08,10.0,SSW,11.5,20.7,N/A,,Clear,200,2012-10-14 20:55:00
5:15 PM,73.8,50.2,43,30.08,10.0,SW,13.8,17.3,N/A,,Clear,220,2012-10-14 21:15:00
5:35 PM,72.7,50.5,46,30.08,10.0,SSW,12.7,17.3,N/A,,Clear,200,2012-10-14 21:35:00
5:55 PM,72.5,51.1,47,30.08,10.0,SSW,8.1,-,N/A,,Clear,200,2012-10-14 21:55:00
6:15 PM,71.6,51.3,49,30.08,10.0,South,5.8,-,N/A,,Clear,190,2012-10-14 22:15:00
6:35 PM,70.9,51.6,50,30.07,10.0,South,8.1,-,N/A,,Clear,180,2012-10-14 22:35:00
6:55 PM,70.2,51.8,52,30.07,10.0,South,6.9,-,N/A,,Clear,190,2012-10-14 22:55:00
7:15 PM,69.4,52.0,54,30.06,10.0,South,8.1,-,N/A,,Clear,180,2012-10-14 23:15:00
7:35 PM,68.9,52.0,55,30.06,10.0,South,4.6,-,N/A,,Clear,180,2012-10-14 23:35:00
7:55 PM,67.5,52.2,58,30.06,10.0,South,4.6,-,N/A,,Clear,170,2012-10-14 23:55:00
8:15 PM,67.3,52.5,59,30.05,10.0,South,5.8,-,N/A,,Clear,170,2012-10-15 00:15:00
8:35 PM,66.6,53.1,62,30.05,10.0,South,8.1,-,N/A,,Clear,170,2012-10-15 00:35:00
8:55 PM,66.6,53.8,63,30.05,10.0,South,5.8,-,N/A,,Clear,170,2012-10-15 00:55:00
9:15 PM,65.7,54.1,66,30.03,10.0,SSE,8.1,-,N/A,,Clear,160,2012-10-15 01:15:00
9:35 PM,66.0,55.0,68,30.02,10.0,SSE,8.1,-,N/A,,Clear,160,2012-10-15 01:35:00
9:55 PM,66.2,55.6,69,30.02,10.0,South,6.9,-,N/A,,Clear,170,2012-10-15 01:55:00
10:15 PM,66.6,55.4,67,30.02,10.0,South,9.2,-,N/A,,Clear,190,2012-10-15 02:15:00
10:35 PM,66.9,55.6,67,30.01,10.0,South,10.4,-,N/A,,Clear,190,2012-10-15 02:35:00
10:55 PM,67.1,55.9,67,30.00,10.0,South,8.1,-,N/A,,Clear,180,2012-10-15 02:55:00
11:15 PM,67.5,56.3,67,30.00,10.0,South,9.2,17.3,N/A,,Scattered Clouds,190,2012-10-15 03:15:00
11:35 PM,68.4,56.5,66,30.00,10.0,SSW,6.9,-,N/A,,Mostly Cloudy,210,2012-10-15 03:35:00
11:55 PM,68.4,56.3,65,30.00,10.0,SSW,9.2,-,N/A,,Overcast,210,2012-10-15 03:55:00